Flag for U.S.A. Weather past 2 weeks in Grand Junction, Colorado, U.S.A.

Now
63 °F

Light rain. Mostly cloudy.


Feels Like: 63 °F
Forecast: 68 / 85 °F
Wind: 10 mph from Northwest

Location: Walker Field

Current Time: Jul 29, 2014 at 3:09:50 AM

Latest Report: Jul 29, 2014 at 1:53 AM


Visibility: 10 mi

Pressure: 30.11 "Hg

Humidity: 97%

Dew point: 62 °F

Location of Grand JunctionLocation

Historic Weather in Grand Junction — Graph

°F

Grand Junction temperature yesterday

Maximum temperature yesterday: 86 °F (at 2:53 PM)
Minimum temperature yesterday: 68 °F (at 4:53 AM)
Average temperature yesterday: 77 °F

Past Weeks' High & Low Weather Summary

 TemperatureHumidityPressure
High98 °F (Jul 23, 3:53 PM)97% (Jul 29, 1:53 AM)30.12 "Hg (Jul 29, 1:53 AM)
Low62 °F (Jul 18, 5:53 AM)7% (Jul 21, 5:53 PM)29.64 "Hg (Jul 16, 6:53 PM)
Average80 °F31%29.89 "Hg
* Reported Jul 14 1:53 AM — Jul 29 1:53 AM, Grand Junction, Weather by CustomWeather, © 2014

Note: Actual official high and low records may vary slightly from our data, if they occured in-between our weather recording intervals... More about our weather records

Advertising

Grand Junction weather history for July 14, 2014

 ConditionsComfort  
Time TempWeatherWind HumidityBarometerVisibility
1:53 AM
Jul 14
76 °FClear.9 mph36%29.88 "Hg10 mi
2:53 AM73 °FClear.No wind37%29.89 "Hg10 mi
3:53 AM73 °FClear.No wind36%29.91 "Hg10 mi
4:53 AM67 °FClear.No wind42%29.93 "Hg10 mi
5:53 AM73 °FMild.12 mph34%29.93 "Hg10 mi
6:53 AM73 °FClear.9 mph37%29.96 "Hg10 mi
7:53 AM78 °FSunny.10 mph32%29.97 "Hg10 mi
8:53 AM80 °FSunny.8 mph32%29.98 "Hg10 mi
9:53 AM82 °FSunny.6 mph29%29.98 "Hg10 mi
10:53 AM83 °FSunny.6 mph28%29.98 "Hg10 mi
11:53 AM88 °FSunny.7 mph24%29.95 "Hg10 mi
12:53 PM90 °FSunny.8 mph23%29.92 "Hg10 mi
1:53 PM94 °FSunny.7 mph18%29.90 "Hg10 mi
2:53 PM94 °FSunny.5 mph15%29.88 "Hg10 mi
3:53 PM93 °FScattered clouds.6 mph16%29.87 "Hg10 mi
4:53 PM93 °FSunny.8 mph17%29.85 "Hg10 mi
5:53 PM94 °FSunny.8 mph17%29.81 "Hg10 mi
6:53 PM92 °FSunny.8 mph18%29.81 "Hg10 mi
7:53 PM90 °FSunny.6 mph18%29.81 "Hg10 mi
8:53 PM86 °FScattered clouds.3 mph20%29.81 "Hg10 mi
9:53 PM83 °FClear.No wind22%29.83 "Hg10 mi
10:53 PM79 °FPassing clouds.No wind25%29.85 "Hg10 mi
11:53 PM80 °FClear.9 mph29%29.87 "Hg10 mi
Weather by CustomWeather, © 2014

See weather overviewHow to use our weather pages